This demonstration page uses our WeatherBlox Daily Observations layout. Learn more.

38.80484, -77.04692

Hourly Observations for November 3, 2019

Temp ( °F °C ) Dew Point ( °F °C ) Humidity (%) Winds ( mph kmh ) Pressure ( in mb ) Visibility ( mi km ) Precip ( " mm )
12:52 am 00:52 Clear 44 6.7 37 2.8 76 76 SSW 3 6 30.12 1020 10 16.0934 0 0
1:52 am 01:52 Clear 43 6.1 35 1.7 74 74 WSW 3 6 30.13 1020 10 16.0934 0 0
1:52 am 01:52 Clear 45 7.2 30 -1.1 56 56 WNW 7 11 30.13 1020 10 16.0934 0 0
2:52 am 02:52 Clear 47 8.3 30 -1.1 52 52 NW 9 15 30.13 1020 10 16.0934 0 0
3:52 am 03:52 Clear 44 6.7 30 -1.1 58 58 WNW 5 7 30.13 1020 10 16.0934 0 0
4:52 am 04:52 Clear 43 6.1 30 -1.1 60 60 W 6 9 30.15 1021 10 16.0934 0 0
5:52 am 05:52 Mostly Clear 44 6.7 29 -1.7 55 55 W 7 11 30.16 1021 10 16.0934 0 0
6:52 am 06:52 Partly Cloudy 45 7.2 28 -2.2 52 52 WNW 8 13 30.19 1022 10 16.0934 0 0
7:52 am 07:52 Partly Cloudy 47 8.3 30 -1.1 52 52 W 7 11 30.22 1023 10 16.0934 0 0
8:52 am 08:52 Mostly Sunny 50 10 29 -1.7 44 44 WNW 8 13 30.24 1024 10 16.0934 0 0
9:52 am 09:52 Mostly Sunny 51 10.6 29 -1.7 43 43 W 15 24 30.24 1024 10 16.0934 0 0
10:52 am 10:52 Mostly Sunny 53 11.7 29 -1.7 40 40 NW 12 19 30.23 1024 10 16.0934 0 0
11:52 am 11:52 Mostly Sunny 54 12.2 27 -2.8 35 35 WNW 16 26 30.22 1023 10 16.0934 0 0
12:52 pm 12:52 Mostly Sunny 56 13.3 27 -2.8 33 33 WNW 15 24 30.2 1023 10 16.0934 0 0
1:52 pm 13:52 Mostly Sunny 56 13.3 26 -3.3 32 32 WNW 12 19 30.19 1022 10 16.0934 0 0
2:52 pm 14:52 Mostly Sunny 57 13.9 26 -3.3 30 30 NNW 8 13 30.19 1022 10 16.0934 0 0
3:52 pm 15:52 Sunny 56 13.3 24 -4.4 29 29 W 10 17 30.2 1023 10 16.0934 0 0
4:52 pm 16:52 Sunny 54 12.2 23 -5 30 30 NW 12 19 30.22 1023 10 16.0934 0 0
5:52 pm 17:52 Clear 51 10.6 25 -3.9 36 36 N 5 7 30.23 1024 10 16.0934 0 0
6:52 pm 18:52 Clear 51 10.6 26 -3.3 38 38 N 5 7 30.24 1024 10 16.0934 0 0
7:52 pm 19:52 Clear 48 8.9 33 0.6 56 56 Calm 30.25 1025 10 16.0934 0 0
8:52 pm 20:52 Clear 45 7.2 33 0.6 63 63 SSW 3 6 30.27 1025 10 16.0934 0 0
9:52 pm 21:52 Clear 45 7.2 33 0.6 63 63 Calm 30.28 1026 10 16.0934 0 0
10:52 pm 22:52 Clear 44 6.7 35 1.7 71 71 Calm 30.29 1026 10 16.0934 0 0
11:52 pm 23:52 Clear 44 6.7 33 0.6 65 65 Calm 30.29 1026 10 16.0934 0 0

Powered by AerisWeather